Trinidad, Colorado, United States (81082)
Lat: 37.17N, Lon: 104.5W
Wx Zone: COZ088
Local Info
Past Weather Observations for Sunday, April 20, 2014

NOTE: This archive is for the closest National Weather Service station to Trinidad. Information may differ from the station used for current weather conditions.

Time Weather Temperature Dewpoint Humidity Pressure Winds Precip Visibility
23:54
Clear
48°F / 9°C 39°F / 4°C 71% 30.15 in
(1021 mb)
W 12.7 mph
(W 20 kph)
- 10SM
22:54
Clear
48°F / 9°C 41°F / 5°C 76% 30.15 in
(1021 mb)
SSW 13.8 mph
(SSW 22 kph)
- 10SM
21:54
Clear
48°F / 9°C 43°F / 6°C 82% 30.12 in
(1020 mb)
SSW 11.5 mph
(SSW 19 kph)
- 10SM
20:54
Clear
50°F / 10°C 43°F / 6°C 76% 30.12 in
(1020 mb)
SSW 9.2 mph
(SSW 15 kph)
- 10SM
19:54
Clear
52°F / 11°C 43°F / 6°C 72% 30.09 in
(1019 mb)
W 9.2 mph
(W 15 kph)
- 10SM
18:54
Clear
57°F / 14°C 43°F / 6°C 59% 30.06 in
(1018 mb)
SSW 5.8 mph
(SSW 9 kph)
- 10SM
17:54
Clear
63°F / 17°C 43°F / 6°C 49% 30.06 in
(1018 mb)
Calm - 10SM
16:54
Partly Cloudy
63°F / 17°C 43°F / 6°C 49% 30.06 in
(1018 mb)
Calm - 10SM
15:54
Partly Cloudy
63°F / 17°C 43°F / 6°C 49% 30.06 in
(1018 mb)
W 6.9 mph
(W 11 kph)
0.00 in
(0.00 mm)
10SM
14:54
Mostly Cloudy
63°F / 17°C 39°F / 4°C 42% 30.06 in
(1018 mb)
Variable 5.8 mph
(Variable 9 kph)
0.00 in
(0.00 mm)
10SM
13:54
Overcast
59°F / 15°C 46°F / 8°C 63% 30.09 in
(1019 mb)
SSW 8.1 mph
(SSW 13 kph)
0.00 in
(0.00 mm)
10SM
12:54
Overcast
Light Rain
55°F / 13°C 46°F / 8°C 72% 30.09 in
(1019 mb)
SSW 11.5 mph
(SSW 19 kph)
0.00 in
(0.00 mm)
10SM
11:54
Overcast
Light Rain
55°F / 13°C 46°F / 8°C 72% 30.09 in
(1019 mb)
W 12.7 mph
(W 20 kph)
0.00 in
(0.00 mm)
10SM
10:54
Overcast
54°F / 12°C 46°F / 8°C 77% 30.09 in
(1019 mb)
W 16.1 mph
(W 26 kph)
0.00 in
(0.00 mm)
10SM
09:54
Overcast
Light Rain
52°F / 11°C 46°F / 8°C 82% 30.09 in
(1019 mb)
W 15 mph
(W 24 kph)
0.02 in
(0.51 mm)
8SM
08:54
Overcast
Light Rain
50°F / 10°C 45°F / 7°C 82% 30.09 in
(1019 mb)
NW 16.1 mph
(NW 26 kph)
0.00 in
(0.00 mm)
10SM
07:54
Overcast
52°F / 11°C 45°F / 7°C 77% 30.06 in
(1018 mb)
WNW 15 mph
(WNW 24 kph)
0.01 in
(0.25 mm)
10SM
06:54
Overcast
Light Rain
52°F / 11°C 45°F / 7°C 77% 30.09 in
(1019 mb)
NW 6.9 mph
(NW 11 kph)
0.00 in
(0.00 mm)
10SM
05:54
Overcast
Light Rain
50°F / 10°C 45°F / 7°C 82% 30.06 in
(1018 mb)
NNW 4.6 mph
(NNW 7 kph)
0.00 in
(0.00 mm)
10SM
04:54
Overcast
50°F / 10°C 43°F / 6°C 76% 30.06 in
(1018 mb)
NNW 4.6 mph
(NNW 7 kph)
- 10SM
03:54
Overcast
50°F / 10°C 45°F / 7°C 82% 30.06 in
(1018 mb)
W 6.9 mph
(W 11 kph)
0.00 in
(0.00 mm)
10SM
02:54
Overcast
Light Rain
50°F / 10°C 45°F / 7°C 82% 30.06 in
(1018 mb)
W 9.2 mph
(W 15 kph)
0.00 in
(0.00 mm)
10SM
01:54
Partly Cloudy
52°F / 11°C 43°F / 6°C 72% 30.06 in
(1018 mb)
WNW 16.1 mph
(WNW 26 kph)
- 10SM
00:54
Overcast
52°F / 11°C 45°F / 7°C 77% 30.06 in
(1018 mb)
WNW 8.1 mph
(WNW 13 kph)
0.01 in
(0.25 mm)
10SM
Time Weather Temperature Dewpoint Humidity Pressure Winds Precip Visibility


Weather for websites

WeatherForYou.com, LLC is not responsible for any damages or problems caused by this service. Current weather conditions are obtained from the closest station including government and personal stations which may have varying degrees of accuracy. Weather forecasts are derived from the NOAA NDFD. Like all things, this site belongs to Jesus Christ... He just trusts me to maintain it. If you have any questions or comments email webmaster@weatherforyou.com

Copyright © 2014, WeatherForYou.com LLC. All rights reserved.